Location: *
(50.5492°N, 7.7469°E)
Time: 08:42:15
(UTC+00:00)

Cosmos 2084 Rocket - Pass Details

Date: 21 October 2019
Orbit: 572 x 609 km, 62.8° (Epoch: 14 November)

Event Time Altitude Azimuth Distance (km) Brightness Sun altitude
Rises 18:27:16 0° 312° (NW) 2,874 7.9 -20.0°
Reaches altitude 10° 18:29:36 10° 307° (NW) 1,963 7.0 -20.3°
Maximum altitude 18:33:52 48° 233° (SW) 791 4.3 -21.0°
Enters shadow 18:36:06 25° 172° (S) 1,223 4.9 -21.4°
